| time (UTC) | temp F | wind direction | speed knots | gust knots | rain 1hr in | rain 24hr in | rain mn in | humidity % | barometer mb |
| 20260509061541 | 49 | 146 | 1.7 | 4.3 | 0.00 | 0.00 | 0.00 | 69 | 1019.3 |
| 20260509060059 | 50 | 196 | 1.7 | 5.2 | 0.00 | 0.00 | 0.00 | 67 | 1019.0 |
| 20260509054538 | 51 | 244 | 5.2 | 9.6 | 0.00 | 0.00 | 0.00 | 66 | 1019.0 |
| 20260509053051 | 52 | 227 | 3.5 | 7.0 | 0.00 | 0.00 | 0.00 | 64 | 1019.2 |
| 20260509051534 | 51 | 230 | 4.3 | 10.4 | 0.00 | 0.00 | 0.00 | 64 | 1018.9 |
| 20260509050034 | 51 | 270 | 2.6 | 7.0 | 0.00 | 0.00 | 0.00 | 63 | 1018.9 |
| 20260509044532 | 52 | 229 | 3.5 | 6.1 | 0.00 | 0.00 | 0.00 | 61 | 1018.6 |
| 20260509043040 | 53 | 241 | 2.6 | 7.8 | 0.00 | 0.00 | 0.00 | 59 | 1018.6 |
| 20260509041527 | 54 | 251 | 7.0 | 15.6 | 0.00 | 0.00 | 0.00 | 57 | 1018.4 |
| 20260509040026 | 54 | 257 | 8.7 | 14.8 | 0.00 | 0.00 | 0.00 | 56 | 1017.8 |
| 20260509034524 | 54 | 246 | 6.1 | 13.0 | 0.00 | 0.00 | 0.00 | 55 | 1017.8 |
| 20260509033022 | 55 | 268 | 8.7 | 14.8 | 0.00 | 0.00 | 0.00 | 53 | 1017.7 |
| 20260509031519 | 55 | 230 | 7.8 | 12.2 | 0.00 | 0.00 | 0.00 | 52 | 1017.4 |
| 20260509030017 | 56 | 268 | 9.6 | 16.5 | 0.00 | 0.00 | 0.00 | 50 | 1017.1 |
| 20260509024516 | 57 | 256 | 10.4 | 15.6 | 0.00 | 0.00 | 0.00 | 48 | 1016.8 |
| 20260509023015 | 59 | 246 | 9.6 | 16.5 | 0.00 | 0.00 | 0.00 | 47 | 1016.6 |
| 20260509021512 | 59 | 258 | 13.9 | 20.9 | 0.00 | 0.00 | 0.00 | 45 | 1016.3 |
| 20260509020011 | 60 | 263 | 13.9 | 20.9 | 0.00 | 0.00 | 0.00 | 44 | 1016.2 |
| 20260509014520 | 61 | 273 | 14.8 | 22.6 | 0.00 | 0.00 | 0.00 | 41 | 1016.0 |
| 20260509013010 | 62 | 272 | 14.8 | 21.7 | 0.00 | 0.00 | 0.00 | 40 | 1016.1 |
| 20260509011508 | 63 | 268 | 13.9 | 19.1 | 0.00 | 0.00 | 0.00 | 39 | 1016.0 |
| 20260509010008 | 63 | 250 | 13.0 | 21.7 | 0.00 | 0.00 | 0.00 | 39 | 1016.2 |
| 20260509004509 | 64 | 272 | 13.0 | 20.0 | 0.00 | 0.00 | 0.00 | 34 | 1016.0 |
| 20260509003007 | 64 | 263 | 12.2 | 20.0 | 0.00 | 0.00 | 0.00 | 34 | 1015.9 |
| 20260509001508 | 64 | 263 | 12.2 | 19.1 | 0.00 | 0.00 | 0.00 | 33 | 1016.0 |
| 20260509000005 | 65 | 277 | 12.2 | 17.4 | 0.00 | 0.00 | 0.00 | 33 | 1015.8 |
| 20260508234504 | 65 | 257 | 12.2 | 18.2 | 0.00 | 0.00 | 0.00 | 33 | 1015.8 |
| 20260508233004 | 66 | 249 | 11.3 | 18.2 | 0.00 | 0.00 | 0.00 | 36 | 1015.8 |
| 20260508231503 | 67 | 264 | 8.7 | 20.0 | 0.00 | 0.00 | 0.00 | 37 | 1016.0 |
| 20260508230004 | 67 | 275 | 10.4 | 17.4 | 0.00 | 0.00 | 0.00 | 30 | 1016.0 |
| 20260508224507 | 66 | 288 | 8.7 | 14.8 | 0.00 | 0.00 | 0.00 | 31 | 1016.0 |
| 20260508223002 | 66 | 261 | 9.6 | 15.6 | 0.00 | 0.00 | 0.00 | 29 | 1015.8 |
| 20260508221600 | 66 | 261 | 10.4 | 19.1 | 0.00 | 0.00 | 0.00 | 28 | 1015.7 |
| 20260508220058 | 67 | 260 | 12.2 | 21.7 | 0.00 | 0.00 | 0.00 | 32 | 1015.8 |
| 20260508214556 | 66 | 258 | 13.0 | 20.9 | 0.00 | 0.00 | 0.00 | 37 | 1015.7 |
| 20260508213058 | 66 | 242 | 11.3 | 18.2 | 0.00 | 0.00 | 0.00 | 40 | 1015.7 |
| 20260508211555 | 66 | 301 | 11.3 | 16.5 | 0.00 | 0.00 | 0.00 | 38 | 1015.6 |
| 20260508210054 | 66 | 274 | 11.3 | 15.6 | 0.00 | 0.00 | 0.00 | 37 | 1015.6 |
| 20260508204553 | 65 | 281 | 9.6 | 13.0 | 0.00 | 0.00 | 0.00 | 34 | 1015.5 |
| 20260508203051 | 64 | 257 | 11.3 | 17.4 | 0.00 | 0.00 | 0.00 | 41 | 1015.6 |
| 20260508201551 | 63 | 250 | 10.4 | 15.6 | 0.00 | 0.00 | 0.00 | 42 | 1015.6 |
| 20260508200050 | 63 | 257 | 11.3 | 16.5 | 0.00 | 0.00 | 0.00 | 48 | 1015.5 |
| 20260508194602 | 64 | 277 | 9.6 | 14.8 | 0.00 | 0.00 | 0.00 | 49 | 1015.3 |
| 20260508193105 | 64 | 251 | 7.0 | 14.8 | 0.00 | 0.00 | 0.00 | 48 | 1015.0 |
| 20260508191557 | 64 | 285 | 8.7 | 13.0 | 0.00 | 0.00 | 0.00 | 50 | 1015.0 |
| 20260508190103 | 66 | 268 | 12.2 | 17.4 | 0.00 | 0.00 | 0.00 | 46 | 1014.9 |
| 20260508184544 | 65 | 282 | 7.8 | 13.0 | 0.00 | 0.00 | 0.00 | 45 | 1015.0 |
| 20260508183044 | 65 | 247 | 8.7 | 13.9 | 0.00 | 0.00 | 0.00 | 43 | 1015.2 |
| 20260508181545 | 64 | 263 | 6.1 | 13.0 | 0.00 | 0.00 | 0.00 | 52 | 1015.2 |
| 20260508180037 | 62 | 303 | 3.5 | 9.6 | 0.00 | 0.00 | 0.00 | 53 | 1015.3 |
| 20260508174537 | 61 | 272 | 2.6 | 7.8 | 0.00 | 0.00 | 0.00 | 54 | 1015.5 |
| 20260508173031 | 60 | 254 | 5.2 | 7.8 | 0.00 | 0.00 | 0.00 | 57 | 1015.7 |
| 20260508171540 | 60 | 236 | 5.2 | 12.2 | 0.00 | 0.00 | 0.00 | 57 | 1015.8 |
| 20260508170027 | 59 | 254 | 7.0 | 14.8 | 0.00 | 0.00 | 0.00 | 54 | 1015.7 |
| 20260508164526 | 58 | 233 | 6.1 | 13.0 | 0.00 | 0.00 | 0.00 | 54 | 1015.5 |
| 20260508163023 | 58 | 249 | 7.8 | 13.0 | 0.00 | 0.00 | 0.00 | 53 | 1015.5 |
| 20260508161534 | 57 | 260 | 4.3 | 7.8 | 0.00 | 0.00 | 0.00 | 58 | 1015.4 |
| 20260508160017 | 55 | 254 | 4.3 | 7.0 | 0.00 | 0.00 | 0.00 | 61 | 1015.4 |
| 20260508154520 | 54 | 248 | 4.3 | 7.8 | 0.00 | 0.00 | 0.00 | 61 | 1015.4 |
| 20260508153025 | 54 | 241 | 5.2 | 8.7 | 0.00 | 0.00 | 0.00 | 59 | 1015.4 |
| 20260508151512 | 55 | 232 | 5.2 | 8.7 | 0.00 | 0.00 | 0.00 | 58 | 1015.2 |
| 20260508150011 | 55 | 251 | 5.2 | 8.7 | 0.00 | 0.00 | 0.00 | 56 | 1015.3 |
| 20260508144510 | 56 | 265 | 6.1 | 11.3 | 0.00 | 0.00 | 0.00 | 52 | 1015.2 |
| 20260508143009 | 55 | 275 | 4.3 | 9.6 | 0.00 | 0.00 | 0.00 | 52 | 1015.2 |
| 20260508141507 | 56 | 220 | 3.5 | 11.3 | 0.00 | 0.00 | 0.00 | 49 | 1015.1 |
| 20260508140006 | 55 | 222 | 3.5 | 7.8 | 0.00 | 0.00 | 0.00 | 49 | 1015.1 |
| 20260508134600 | 54 | 239 | 2.6 | 6.1 | 0.00 | 0.00 | 0.00 | 49 | 1014.8 |
| 20260508133103 | 52 | 213 | 2.6 | 4.3 | 0.00 | 0.00 | 0.00 | 50 | 1014.7 |
| 20260508131557 | 50 | 239 | 2.6 | 5.2 | 0.00 | 0.00 | 0.00 | 50 | 1014.7 |
| 20260508130056 | 50 | 230 | 3.5 | 7.0 | 0.00 | 0.00 | 0.00 | 49 | 1014.7 |
| 20260508124555 | 50 | 225 | 1.7 | 5.2 | 0.00 | 0.00 | 0.00 | 46 | 1014.6 |
| 20260508123054 | 52 | 223 | 1.7 | 7.8 | 0.00 | 0.00 | 0.00 | 47 | 1014.5 |
| 20260508121552 | 51 | 213 | 4.3 | 9.6 | 0.00 | 0.00 | 0.00 | 43 | 1014.5 |
| 20260508120100 | 50 | 218 | 2.6 | 6.1 | 0.00 | 0.00 | 0.00 | 48 | 1014.4 |
| 20260508114559 | 50 | 237 | 3.5 | 6.1 | 0.00 | 0.00 | 0.00 | 49 | 1014.5 |
| 20260508113050 | 50 | 199 | 1.7 | 5.2 | 0.00 | 0.00 | 0.00 | 49 | 1014.6 |
| 20260508111546 | 51 | 222 | 2.6 | 5.2 | 0.00 | 0.00 | 0.00 | 46 | 1014.5 |
| 20260508110048 | 52 | 220 | 4.3 | 8.7 | 0.00 | 0.00 | 0.00 | 46 | 1014.5 |
| 20260508104545 | 52 | 195 | 3.5 | 7.0 | 0.00 | 0.00 | 0.00 | 46 | 1014.5 |
| 20260508103048 | 52 | 239 | 4.3 | 8.7 | 0.00 | 0.00 | 0.00 | 46 | 1014.4 |
| 20260508101642 | 52 | 225 | 4.3 | 7.8 | 0.00 | 0.00 | 0.00 | 45 | 1014.4 |
| 20260508100058 | 53 | 208 | 3.5 | 8.7 | 0.00 | 0.00 | 0.00 | 45 | 1014.3 |
| 20260508094543 | 53 | 213 | 5.2 | 10.4 | 0.00 | 0.00 | 0.00 | 44 | 1014.3 |
| 20260508093039 | 52 | 194 | 3.5 | 7.8 | 0.00 | 0.00 | 0.00 | 46 | 1014.2 |
| 20260508091546 | 52 | 225 | 3.5 | 7.0 | 0.00 | 0.00 | 0.00 | 43 | 1014.3 |
| 20260508090040 | 51 | 227 | 4.3 | 8.7 | 0.00 | 0.00 | 0.00 | 42 | 1014.4 |
| 20260508084533 | 51 | 159 | 2.6 | 7.0 | 0.00 | 0.00 | 0.00 | 39 | 1014.4 |
| 20260508083033 | 50 | 146 | 1.7 | 3.5 | 0.00 | 0.00 | 0.00 | 40 | 1014.3 |
| 20260508081530 | 52 | 104 | 2.6 | 5.2 | 0.00 | 0.00 | 0.00 | 35 | 1014.3 |
| 20260508080034 | 52 | 167 | 2.6 | 6.1 | 0.00 | 0.00 | 0.00 | 35 | 1014.2 |
| 20260508074531 | 51 | 129 | 3.5 | 6.1 | 0.00 | 0.00 | 0.00 | 32 | 1014.1 |
| 20260508073029 | 50 | 149 | 2.6 | 3.5 | 0.00 | 0.00 | 0.00 | 32 | 1014.0 |
| 20260508071532 | 50 | 163 | 2.6 | 4.3 | 0.00 | 0.00 | 0.00 | 32 | 1014.2 |
| 20260508070020 | 52 | 151 | 2.6 | 5.2 | 0.00 | 0.00 | 0.00 | 32 | 1014.1 |
| 20260508064526 | 53 | 202 | 1.7 | 5.2 | 0.00 | 0.00 | 0.00 | 30 | 1014.0 |
| 20260508063021 | 52 | 206 | 2.6 | 5.2 | 0.00 | 0.00 | 0.00 | 30 | 1014.0 |